Location: Prague
(50.0830°N, 14.4670°E)
Time: 23:27:27
(UTC+01:00)

O/OREOS (USA 219) - Visible Passes

Search period start: 01 December 2021 00:00
Search period end: 11 December 2021 00:00
Orbit: 621 x 646 km, 72.0° (Epoch: 22 May)

Date Brightness Start Highest point End Pass type
(mag) Time Alt. Az. Time Alt. Az. Time Alt. Az.
08 Dec ? 17:59:07 10° N 17:59:55 12° NNE 17:59:55 12° NNE visible
09 Dec ? 18:20:34 10° N 18:21:51 16° N 18:21:51 16° N visible
10 Dec ? 17:05:32 10° NNE 17:05:59 10° NNE 17:06:25 10° NE visible
10 Dec ? 18:42:18 10° NNW 18:43:53 20° N 18:43:53 20° N visible
